FALCON 9 R/B, 47241

Orbit data source: Space-Track

FALCON 9 R/B, 47241 is space debris originally from a launch on Sun, 13 Dec 2020 UTC launched from the Air Force Eastern Test Range (AFETR). Debris objects in space refer to the collection of defunct objects orbiting the Earth. Examples of debris include non-operational satellites, rocket bodies, and fragments generated from explosions, collisions, or faulty payload assembly.

Loading next visibility...
Identifier
47241, 2020-096B
Orbit
Active
Country
Flag of USUS
Related business
Manufacturer
SpaceX
Mission
Spacecraft
Bus & Motor
F9ST2, Unknown motor
Mass
~4,000 kg wet, ~4,000 kg dry
Launch date (UTC)
2020-12-13 (6 years ago)
Launch vehicle
Unknown
Launch site
Air Force Eastern Test Range (AFETR)
Object type
Payload
Rocket body
Debris
Shape & HBR
Cyl, 7.8 m
Radar Cross Section
39.980 m², Large (>1 m²)

Expand to show TLE details & history
Last TLE update: 2 days ago

TLE from 2 days ago
0 FALCON 9 R/B
1 47241U 20096B   26171.14345363  .00018650  00000-0  10096-2 0  9999
2 47241  26.9635  74.0964 4417942 344.3411   5.4936  6.69947227106570
Epoch: 2026-06-20T03:26Z
TLE epoch observation values (Epoch: 2026-06-20T03:26:34.393Z)
Latitude
-0.00006°
Longitude
114.09068°
Altitude
333.049 km
Speed
9.234 km/s
True Right ascension
04h 56m 23s
True Declination
0° 00' 00"
Sunlit
Object was in daylight at epoch
Visualization orbit readout
Latitude
Unknown
Longitude
Unknown
Altitude
Unknown
Speed
Unknown
Apparent Right ascension
Unknown
Apparent Declination
Unknown
Sunlit
N/A
Visualization observer readout
Local Sidereal Time
21:39:44
Azimuth
Unknown
Elevation
Unknown
Doppler factor
Unknown
Orbital elements
Apogee altitude
10,764.383 km
Perigee altitude
258.77 km
Semi-major axis
11,889.714 km
Eccentricity
0.44179
Inclination
26.9635°
RAAN
74.0964°
Arg. of periapsis
344.3411°
True anomaly
15.69564°
Mean anomaly
5.4936°
Eccentric anomaly
9.80373°
Mean motion
1.67412 °/min
Orbital period
215.04 mins
BSTAR
0.0010096
Loading maneuver chart data...
Computing Atmospheric mass density...
Loading historical data...
Loading historical data...
Loading historical data...
Loading historical data...
Loading historical data...
Loading historical data...
Loading historical data...
Other satellites on launch #96 in the year 2020 (2020-12-13 UTC)

Documentation

Showing up to 5 results
|